Regional Weather Roundup
Issued by NWS

Home | Current Version | Previous Version | Graphics & Text | Print | Product List | Glossary On
Versions: 1 2 3 4 5 6 7 8 9 10 11 12 13 14 15 16 17 18 19 20 21 22 23 24 25 26 27 28 29 30 31 32 33 34 35 36 37 38 39 40 41 42 43 44 45 46 47 48 49 50
000
ASUS43 KDMX 070306
RWRIA

WEATHER ROUNDUP FOR IOWA
NATIONAL WEATHER SERVICE DES MOINES IA
900 PM CST TUE DEC 06 2016

NOTE: "FAIR" INDICATES FEW OR NO CLOUDS BELOW 12,000 FEET WITH NO
SIGNIFICANT WEATHER AND/OR OBSTRUCTIONS TO VISIBILITY.

* - THESE STATIONS ARE NOT NWS STATIONS...THUS NOT UNDER NWS
QUALITY CONTROL.  THEY ALSO DO NOT REPORT WEATHER SUCH
AS PRECIPITATION OR FOG.

IAZ001>003-012>014-020>022-031>034-043>046-070400-
   NORTHWEST IOWA

CITY           SKY/WX    TMP DP  RH WIND       PRES   REMARKS
CARROLL *      CLEAR     23  14  68 W18       30.02S WCI   9
CHEROKEE *     CLEAR     18  10  71 W16       30.04S WCI   3
DENISON *      CLEAR     21  12  68 NW16G23   30.01F WCI   7
LE MARS *      MOCLDY    18   9  68 W10       30.08R WCI   6
ORANGE CITY *  PTCLDY    16  10  79 W22       30.02S WCI  -2
SHELDON *      CLOUDY    16   9  73 W24G30    29.99R WCI  -3
SIOUX CITY     CLEAR     21   9  59 NW17G23   30.08S WCI   7
SPENCER        CLEAR     17  10  74 W28G41    29.98R WCI  -2
STORM LAKE *   CLEAR     18  10  73 W21G31    30.01R WCI   1
$$

IAZ055>058-069>071-079>083-090>094-070400-
   SOUTHWEST IOWA

CITY           SKY/WX    TMP DP  RH WIND       PRES   REMARKS
ATLANTIC *     CLEAR     23  14  68 W8        30.07R WCI  14
AUDUBON *      CLEAR     23  12  63 NW6       30.03R WCI  16
CLARINDA *     CLEAR     25  14  63 W6        30.13R WCI  18
COUNCIL BLFS * CLEAR     25  10  54 NW9       30.09R WCI  15
CRESTON *      CLEAR     23  14  68 W10       30.07R WCI  12
HARLAN  *      CLEAR     21  14  73 W13       30.10R WCI   9
LAMONI         CLEAR     25  14  63 W10       30.07R WCI  15
RED OAK *      CLEAR     25  14  63 VRB3      30.10R
SHENANDOAH *   CLEAR     23  16  74 W8        30.13R WCI  14
$$

IAZ047>049-059>061-072>074-084-070400-
   CENTRAL IOWA

CITY           SKY/WX    TMP DP  RH WIND       PRES   REMARKS
AMES           CLEAR     24  16  71 W15       30.02R WCI  11
ANKENY *       CLEAR     27  14  59 W16G23    30.03S WCI  14
BOONE *        CLEAR     23  12  63 W18G25    30.00R WCI   9
CHARITON *       N/A     27  14  59 W13       30.04R WCI  16
DES MOINES     CLEAR     27  14  58 W13       30.03R WCI  16
GRINNELL*      CLEAR     26  17  66 W15       30.00R WCI  14
KNOXVILLE *    CLEAR     25  16  68 W10       30.02R WCI  15
MARSHALLTOWN   CLEAR     24  16  71 W16G22    29.98S WCI  11
NEWTON *       CLEAR     25  16  68 W13       30.00S WCI  13
PELLA *        CLEAR     28  17  64 W13G18    30.03S WCI  17
PERRY *          N/A     25  18  76 W13G21    30.03S WCI  13
$$

IAZ004>006-015-016-023>025-035-036-070400-
   NORTH CENTRAL IOWA

CITY           SKY/WX    TMP DP  RH WIND       PRES   REMARKS
ALGONA *       CLOUDY    19  12  73 W21G26    29.97R WCI   3
CLARION *      CLEAR     21  12  68 W23G30    29.98R WCI   5
ESTHERVILLE    PTCLDY    16  10  77 W20G28    29.95R WCI  -1
FORT DODGE *   CLEAR     19   9  63 W14G21    30.02R WCI   6
MASON CITY     PTCLDY    19  12  74 W28G35    29.94R WCI   1
FOREST CITY *    N/A     19  12  73 W18G26    29.94R WCI   4
WEBSTER CITY * CLEAR     21  14  73 W24G31    29.99S WCI   4
IOWA FALLS *     N/A     24  15  69 W24G31    29.99R WCI   8
$$

IAZ007>011-017>019-026>030-037>042-050>054-066-070400-
   NORTHEAST IOWA

CITY           SKY/WX    TMP DP  RH WIND       PRES   REMARKS
CEDAR RAPIDS   CLEAR     24  19  81 W13       29.97R WCI  12
CHARLES CITY * CLOUDY    21  14  73 W21G37    29.93R WCI   6
CLINTON *      CLEAR     27  22  81 W14       29.98S WCI  16
DECORAH *      CLOUDY    23  16  74 W15G26    29.88R WCI  10
DUBUQUE        FLURRIES  23  16  74 W15       29.93R WCI  10
MONTICELLO *   CLEAR     27  16  63 W17G24    29.96R WCI  14
OELWEIN *      CLEAR     23  16  74 W21       29.93S WCI   8
WATERLOO       CLEAR     24  14  65 W23G30    29.96R WCI   9
$$

IAZ064-065-067-068-078-070400-
   EAST CENTRAL IOWA

CITY           SKY/WX    TMP DP  RH WIND       PRES   REMARKS
DAVENPORT      CLEAR     27  21  78 W13       29.99S WCI  16
IOWA CITY      CLEAR     26  18  71 W8        30.02R WCI  18
MUSCATINE *    CLEAR     27  19  74 W7        30.03R WCI  19
QUAD CITIES    CLEAR     29  19  66 W13       30.00R WCI  19
$$

IAZ062-063-075>077-085>089-095>099-070400-
   SOUTHEAST IOWA

CITY           SKY/WX    TMP DP  RH WIND       PRES   REMARKS
BURLINGTON     CLEAR     29  20  69 W9        30.04R WCI  20
FAIRFIELD *    CLEAR     27  18  69 SW9       30.03S WCI  17
FORT MADISON * CLEAR     28  19  69 W7        30.06R WCI  21
KEOKUK *       CLEAR     28  19  69 W10       30.06R WCI  19
OSKALOOSA *      N/A     25  19  77 W8        30.03S WCI  16
CENTERVILLE *    N/A     27  16  63 SW9       30.07R WCI  17
OTTUMWA        CLEAR     27  16  63 W8        30.02S WCI  19
WASHINGTON *   CLEAR     28  19  69 W12       30.03R WCI  18
$$

ABBREVIATIONS USED IN REMARKS
   TC - TEMPERATURES IN CELSIUS
  WCI - WIND CHILL INDEX
   HX - HEAT INDEX
  VSB - VISIBILITY
$$





USA.gov is the U.S. government's official web portal to all federal, state and local government web resources and services.